Simultaneous Nadir Overpasses (SNOs) Predictions

Prediction of SNOs between LANDSAT-8 and NOAA-19 Satellite Orbit:

Table of predicted SNOs for the next 14.0 days since TLE Epoch: 2/15/2020
Index Date (LANDSAT-8) Time (LANDSAT-8) Lat,Lon (LANDSAT-8) SZA (LANDSAT-8 ) Date (NOAA-19) Time (NOAA-19) Lat,Lon (NOAA-19) SZA (NOAA-19 ) Distance(km) Time Diff (sec)
1 02/15/2020 19:23:03 -79.49, 92.93 87.29 02/15/2020 19:21:54 -79.49, 93.01 87.30 1.79 69
2 02/15/2020 20:12:30 79.45, -99.70 92.65 02/15/2020 20:12:52 79.48, -99.61 92.69 3.04 22
3 02/18/2020 01:46:14 -79.46, -3.07 88.11 02/18/2020 01:46:15 -79.49, -3.03 88.08 3.46 1
4 02/20/2020 07:19:56 79.50, 93.75 91.16 02/20/2020 07:19:32 79.48, 93.86 91.14 3.15 24
5 02/20/2020 08:09:24 -79.47, -98.82 88.90 02/20/2020 08:10:35 -79.47, -98.80 88.88 0.43 71
6 02/22/2020 12:53:40 -79.51,-169.61 89.63 02/22/2020 12:52:56 -79.50,-169.56 89.65 1.99 44
7 02/22/2020 13:43:06 79.50, -2.01 90.35 02/22/2020 13:43:52 79.47, -2.06 90.33 3.65 46
8 02/24/2020 18:27:23 79.51, -73.09 89.55 02/24/2020 18:26:13 79.51, -72.95 89.55 2.86 70
9 02/24/2020 19:16:51 -79.48, 94.36 90.50 02/24/2020 19:17:17 -79.50, 94.37 90.47 2.96 26




NCC Satellite Simultaneous Nadir Overpasses (SNOs) Prediction Service
